TimeCST,TemperatureF,Dew PointF,Humidity,Sea Level PressureIn,VisibilityMPH,Wind Direction,Wind SpeedMPH,Gust SpeedMPH,PrecipitationIn,Events,Conditions,WindDirDegrees,DateUTC
12:15 AM,19.4,15.8,86,29.91,10.0,South,6.9,-,N/A,,Clear,190,2013-02-24 06:15:00
12:35 AM,19.4,15.8,86,29.91,10.0,SSW,8.1,-,N/A,,Clear,200,2013-02-24 06:35:00
12:55 AM,17.6,14.0,86,29.91,9.0,SSW,5.8,-,N/A,,Partly Cloudy,200,2013-02-24 06:55:00
1:15 AM,17.6,15.8,93,29.92,7.0,Calm,Calm,-,N/A,,Partly Cloudy,0,2013-02-24 07:15:00
1:35 AM,17.6,15.8,93,29.93,6.0,Calm,Calm,-,N/A,,Scattered Clouds,0,2013-02-24 07:35:00
1:55 AM,15.8,14.0,93,29.93,6.0,Calm,Calm,-,N/A,,Scattered Clouds,0,2013-02-24 07:55:00
2:15 AM,15.8,15.8,100,29.93,5.0,Calm,Calm,-,N/A,,Partly Cloudy,0,2013-02-24 08:15:00
2:35 AM,14.0,14.0,100,29.93,4.0,Calm,Calm,-,N/A,,Partly Cloudy,0,2013-02-24 08:35:00
2:55 AM,14.0,12.2,93,29.93,3.0,Calm,Calm,-,N/A,,Partly Cloudy,0,2013-02-24 08:55:00
3:15 AM,14.0,12.2,93,29.93,5.0,Calm,Calm,-,N/A,,Partly Cloudy,0,2013-02-24 09:15:00
3:35 AM,12.2,8.6,85,29.94,5.0,Calm,Calm,-,N/A,,Scattered Clouds,0,2013-02-24 09:35:00
3:55 AM,10.4,8.6,92,29.93,6.0,Calm,Calm,-,N/A,,Mostly Cloudy,0,2013-02-24 09:55:00
4:15 AM,10.4,8.6,92,29.93,5.0,Calm,Calm,-,N/A,,Overcast,0,2013-02-24 10:15:00
4:35 AM,10.4,6.8,85,29.93,6.0,Calm,Calm,-,N/A,,Overcast,0,2013-02-24 10:35:00
4:55 AM,12.2,8.6,85,29.94,6.0,Calm,Calm,-,N/A,,Overcast,0,2013-02-24 10:55:00
5:15 AM,14.0,12.2,93,29.95,3.0,Calm,Calm,-,N/A,,Overcast,0,2013-02-24 11:15:00
5:35 AM,12.2,8.6,85,29.95,7.0,Calm,Calm,-,N/A,,Overcast,0,2013-02-24 11:35:00
5:55 AM,12.2,8.6,85,29.96,7.0,Calm,Calm,-,N/A,,Overcast,0,2013-02-24 11:55:00
6:15 AM,10.4,6.8,85,29.96,6.0,North,3.5,-,N/A,,Overcast,10,2013-02-24 12:15:00
6:35 AM,10.4,8.6,92,29.96,7.0,Calm,Calm,-,N/A,,Mostly Cloudy,0,2013-02-24 12:35:00
6:55 AM,8.6,6.8,92,29.97,3.0,Calm,Calm,-,N/A,,Scattered Clouds,0,2013-02-24 12:55:00
7:15 AM,10.4,6.8,85,29.97,3.0,Calm,Calm,-,N/A,,Clear,0,2013-02-24 13:15:00
7:35 AM,10.4,6.8,85,29.97,4.0,Calm,Calm,-,N/A,,Clear,0,2013-02-24 13:35:00
7:55 AM,10.4,8.6,92,29.98,4.0,Calm,Calm,-,N/A,,Clear,0,2013-02-24 13:55:00
8:15 AM,12.2,8.6,85,29.99,5.0,Calm,Calm,-,N/A,,Clear,0,2013-02-24 14:15:00
8:35 AM,14.0,10.4,86,29.99,5.0,Calm,Calm,-,N/A,,Scattered Clouds,0,2013-02-24 14:35:00
8:55 AM,17.6,15.8,93,30.00,5.0,Calm,Calm,-,N/A,,Overcast,0,2013-02-24 14:55:00
9:15 AM,19.4,17.6,93,30.00,5.0,Calm,Calm,-,N/A,,Overcast,0,2013-02-24 15:15:00
9:35 AM,21.2,19.4,93,30.00,6.0,Calm,Calm,-,N/A,,Overcast,0,2013-02-24 15:35:00
9:55 AM,23.0,17.6,80,30.01,7.0,Calm,Calm,-,N/A,,Mostly Cloudy,0,2013-02-24 15:55:00
10:15 AM,24.8,19.4,80,30.01,7.0,Calm,Calm,-,N/A,,Partly Cloudy,0,2013-02-24 16:15:00
10:35 AM,26.6,21.2,80,30.02,8.0,Calm,Calm,-,N/A,,Mostly Cloudy,0,2013-02-24 16:35:00
10:55 AM,28.4,23.0,80,30.03,9.0,South,4.6,-,N/A,,Overcast,190,2013-02-24 16:55:00
11:15 AM,30.2,23.0,75,30.03,9.0,Calm,Calm,-,N/A,,Overcast,0,2013-02-24 17:15:00
11:35 AM,30.2,23.0,75,30.03,9.0,Calm,Calm,-,N/A,,Overcast,0,2013-02-24 17:35:00
11:55 AM,32.0,24.8,75,30.02,10.0,South,4.6,-,N/A,,Overcast,180,2013-02-24 17:55:00
12:15 PM,33.8,24.8,70,30.02,10.0,SSE,5.8,-,N/A,,Overcast,150,2013-02-24 18:15:00
12:35 PM,33.8,24.8,70,30.01,10.0,SSE,5.8,-,N/A,,Overcast,150,2013-02-24 18:35:00
12:55 PM,35.6,26.6,70,30.01,10.0,SSE,5.8,-,N/A,,Overcast,160,2013-02-24 18:55:00
1:15 PM,37.4,26.6,65,30.00,10.0,SSE,4.6,-,N/A,,Overcast,160,2013-02-24 19:15:00
1:35 PM,37.4,26.6,65,29.99,10.0,South,6.9,-,N/A,,Mostly Cloudy,180,2013-02-24 19:35:00
1:55 PM,37.4,26.6,65,29.98,10.0,South,5.8,-,N/A,,Scattered Clouds,170,2013-02-24 19:55:00
2:15 PM,37.4,26.6,65,29.98,10.0,South,8.1,-,N/A,,Partly Cloudy,170,2013-02-24 20:15:00
2:35 PM,39.2,26.6,61,29.97,10.0,South,6.9,-,N/A,,Partly Cloudy,170,2013-02-24 20:35:00
2:55 PM,39.2,26.6,61,29.97,10.0,South,6.9,-,N/A,,Clear,170,2013-02-24 20:55:00
3:15 PM,39.2,26.6,61,29.97,10.0,SSE,3.5,-,N/A,,Clear,150,2013-02-24 21:15:00
3:35 PM,39.2,26.6,61,29.96,10.0,SSE,3.5,-,N/A,,Clear,160,2013-02-24 21:35:00
3:55 PM,39.2,26.6,61,29.96,10.0,Calm,Calm,-,N/A,,Clear,0,2013-02-24 21:55:00
4:15 PM,39.2,26.6,61,29.97,10.0,South,4.6,-,N/A,,Clear,190,2013-02-24 22:15:00
4:35 PM,39.2,28.4,65,29.97,10.0,Calm,Calm,-,N/A,,Clear,0,2013-02-24 22:35:00
4:55 PM,39.2,28.4,65,29.98,10.0,Calm,Calm,-,N/A,,Clear,0,2013-02-24 22:55:00
5:15 PM,39.2,26.6,61,29.98,10.0,Calm,Calm,-,N/A,,Clear,0,2013-02-24 23:15:00
5:35 PM,37.4,28.4,70,29.98,10.0,NE,3.5,-,N/A,,Clear,50,2013-02-24 23:35:00
5:55 PM,37.4,30.2,75,29.99,10.0,East,4.6,-,N/A,,Clear,90,2013-02-24 23:55:00
6:15 PM,37.4,30.2,75,30.00,10.0,Calm,Calm,-,N/A,,Clear,0,2013-02-25 00:15:00
6:35 PM,35.6,30.2,81,30.01,10.0,East,3.5,-,N/A,,Scattered Clouds,90,2013-02-25 00:35:00
6:55 PM,35.6,30.2,81,30.01,10.0,ENE,4.6,-,N/A,,Overcast,60,2013-02-25 00:55:00
7:15 PM,35.6,30.2,81,30.02,10.0,Calm,Calm,-,N/A,,Overcast,0,2013-02-25 01:15:00
7:35 PM,33.8,30.2,87,30.02,10.0,ENE,3.5,-,N/A,,Overcast,70,2013-02-25 01:35:00
7:55 PM,33.8,30.2,87,30.01,10.0,Calm,Calm,-,N/A,,Overcast,0,2013-02-25 01:55:00
8:15 PM,33.8,30.2,87,30.03,10.0,Calm,Calm,-,N/A,,Overcast,0,2013-02-25 02:15:00
8:35 PM,33.8,30.2,87,30.03,9.0,Calm,Calm,-,N/A,,Overcast,0,2013-02-25 02:35:00
8:55 PM,33.8,30.2,87,30.04,10.0,Calm,Calm,-,N/A,,Overcast,0,2013-02-25 02:55:00
9:15 PM,33.8,30.2,87,30.05,10.0,Calm,Calm,-,N/A,,Overcast,0,2013-02-25 03:15:00
9:35 PM,32.0,32.0,100,30.05,8.0,Calm,Calm,-,N/A,,Overcast,0,2013-02-25 03:35:00
9:55 PM,33.8,30.2,87,30.06,10.0,Calm,Calm,-,N/A,,Overcast,0,2013-02-25 03:55:00
10:15 PM,33.8,30.2,87,30.06,10.0,Calm,Calm,-,N/A,,Overcast,0,2013-02-25 04:15:00
10:35 PM,33.8,30.2,87,30.05,10.0,NE,3.5,-,N/A,,Overcast,50,2013-02-25 04:35:00
10:55 PM,33.8,30.2,87,30.05,10.0,East,3.5,-,N/A,,Overcast,90,2013-02-25 04:55:00
11:15 PM,33.8,28.4,81,30.05,10.0,Calm,Calm,-,N/A,,Overcast,0,2013-02-25 05:15:00
11:35 PM,35.6,28.4,75,30.05,10.0,Calm,Calm,-,N/A,,Overcast,0,2013-02-25 05:35:00
11:55 PM,33.8,28.4,81,30.04,10.0,NNE,3.5,-,N/A,,Overcast,30,2013-02-25 05:55:00